Volver al catálogo

STARLINK-30287

ActivoComunicacionesVLEO
NORAD 57709·PAYLOAD·🇺🇸 United States

Lanzado Aug 27, 2023 desde Cape Canaveral Space Force Station

Loading…

Próximos Pases (próximas 24 horas)

TLE

ActualizadoSource: CelesTrak SupGP

Época: Sep 15, 2026, 02:42 UTC

1 57709C 23129M   26258.11298611  .00061085  00000+0  22119-2 0  2581
2 57709  43.0016 127.9580 0001901 269.2124 126.3510 15.27556442    13

Sigue STARLINK-30287 en tiempo real con AllMySat

Download on the App Store